TimeEST,TemperatureF,Dew PointF,Humidity,Sea Level PressureIn,VisibilityMPH,Wind Direction,Wind SpeedMPH,Gust SpeedMPH,PrecipitationIn,Events,Conditions,WindDirDegrees,DateUTC
12:15 AM,31.1,25.7,80,29.88,10.0,SSE,3.5,-,N/A,,Mostly Cloudy,160,2012-01-28 05:15:00
12:34 AM,30.6,25.9,83,29.88,10.0,SSW,3.5,-,N/A,,Scattered Clouds,200,2012-01-28 05:34:00
12:55 AM,31.5,26.2,81,29.87,10.0,South,4.6,-,N/A,,Mostly Cloudy,180,2012-01-28 05:55:00
1:14 AM,32.0,26.4,80,29.85,10.0,South,6.9,-,N/A,,Overcast,180,2012-01-28 06:14:00
1:34 AM,32.0,26.4,80,29.85,10.0,South,6.9,-,N/A,,Overcast,180,2012-01-28 06:34:00
1:55 AM,32.2,26.2,79,29.84,10.0,South,5.8,-,N/A,,Overcast,190,2012-01-28 06:55:00
2:15 AM,32.0,26.4,80,29.83,10.0,South,5.8,-,N/A,,Overcast,190,2012-01-28 07:15:00
2:34 AM,32.2,26.4,79,29.83,10.0,South,5.8,-,N/A,,Overcast,190,2012-01-28 07:34:00
2:55 AM,32.5,26.6,79,29.83,10.0,South,5.8,-,N/A,,Overcast,190,2012-01-28 07:55:00
3:14 AM,32.5,27.1,80,29.82,10.0,South,8.1,-,N/A,,Overcast,190,2012-01-28 08:14:00
3:35 AM,32.9,27.3,80,29.82,10.0,SSW,8.1,-,N/A,,Overcast,200,2012-01-28 08:35:00
3:55 AM,33.1,28.8,84,29.82,4.0,SSW,9.2,-,N/A,Snow,Light Snow,210,2012-01-28 08:55:00
4:14 AM,32.4,30.0,91,29.80,2.5,SSW,5.8,-,N/A,Snow,Light Snow,210,2012-01-28 09:14:00
4:35 AM,32.0,30.7,95,29.80,3.0,SSW,5.8,-,N/A,Snow,Light Snow,200,2012-01-28 09:35:00
4:55 AM,32.0,31.1,96,29.79,3.0,South,6.9,-,N/A,Snow,Light Snow,190,2012-01-28 09:55:00
5:35 AM,32.2,31.6,98,29.76,2.5,South,6.9,-,N/A,Snow,Light Snow,180,2012-01-28 10:35:00
5:55 AM,32.2,31.6,98,29.75,3.0,South,8.1,-,N/A,Snow,Light Snow,180,2012-01-28 10:55:00
6:14 AM,32.4,32.0,99,29.74,3.0,South,8.1,-,N/A,Snow,Light Snow,180,2012-01-28 11:14:00
6:35 AM,32.5,32.0,98,29.73,3.0,South,8.1,-,N/A,Snow,Light Snow,190,2012-01-28 11:35:00
6:54 AM,32.5,32.0,98,29.73,4.0,South,9.2,-,N/A,Snow,Light Snow,180,2012-01-28 11:54:00
7:14 AM,32.9,32.0,96,29.72,4.0,South,8.1,-,N/A,,Overcast,180,2012-01-28 12:14:00
7:35 AM,33.1,32.0,96,29.71,3.0,South,8.1,-,N/A,Snow,Light Snow,190,2012-01-28 12:35:00
7:54 AM,33.3,32.2,96,29.70,1.8,SSW,10.4,-,N/A,Snow,Light Snow,200,2012-01-28 12:54:00
8:14 AM,33.3,32.2,96,29.70,1.0,SSW,6.9,-,N/A,Snow,Light Snow,200,2012-01-28 13:14:00
8:35 AM,33.4,32.5,96,29.69,1.0,SSW,8.1,-,N/A,Snow,Light Snow,210,2012-01-28 13:35:00
8:54 AM,33.4,32.5,96,29.69,0.8,SSW,10.4,-,N/A,Snow,Light Snow,210,2012-01-28 13:54:00
9:15 AM,33.8,32.9,96,29.68,1.0,SSW,10.4,16.1,N/A,Snow,Light Snow,210,2012-01-28 14:15:00
9:35 AM,33.8,32.9,96,29.68,1.0,SW,11.5,17.3,N/A,Snow,Light Snow,220,2012-01-28 14:35:00
9:54 AM,33.8,32.7,96,29.68,1.5,SW,12.7,19.6,N/A,Snow,Light Snow,220,2012-01-28 14:54:00
10:15 AM,33.8,32.4,94,29.68,1.2,SW,10.4,18.4,N/A,Snow,Light Snow,220,2012-01-28 15:15:00
10:35 AM,33.8,32.2,94,29.68,10.0,SW,13.8,25.3,N/A,,Overcast,230,2012-01-28 15:35:00
10:54 AM,34.2,32.0,92,29.69,7.0,WSW,23.0,32.2,N/A,,Overcast,240,2012-01-28 15:54:00
11:15 AM,34.0,31.8,92,29.71,2.5,WSW,21.9,32.2,N/A,Snow,Light Snow,250,2012-01-28 16:15:00
11:34 AM,32.9,31.6,95,29.72,0.2,West,20.7,32.2,N/A,Snow,Snow,260,2012-01-28 16:34:00
11:54 AM,32.9,30.9,92,29.73,3.0,West,25.3,33.4,N/A,Snow,Light Snow,270,2012-01-28 16:54:00
12:15 PM,33.1,28.8,84,29.75,10.0,West,23.0,38.0,N/A,,Overcast,270,2012-01-28 17:15:00
12:34 PM,33.4,26.2,75,29.76,10.0,West,24.2,35.7,N/A,,Mostly Cloudy,260,2012-01-28 17:34:00
12:54 PM,33.6,24.8,70,29.77,10.0,West,27.6,39.1,N/A,,Scattered Clouds,270,2012-01-28 17:54:00
1:15 PM,33.3,23.5,68,29.78,10.0,West,31.1,39.1,N/A,,Scattered Clouds,260,2012-01-28 18:15:00
1:34 PM,33.4,24.1,69,29.79,10.0,West,24.2,34.5,N/A,,Clear,260,2012-01-28 18:34:00
1:55 PM,34.0,23.0,64,29.80,10.0,West,24.2,36.8,N/A,,Mostly Cloudy,260,2012-01-28 18:55:00
2:14 PM,34.0,22.6,63,29.82,10.0,West,25.3,40.3,N/A,,Overcast,260,2012-01-28 19:14:00
2:34 PM,32.7,20.3,60,29.83,10.0,West,24.2,38.0,N/A,,Mostly Cloudy,270,2012-01-28 19:34:00
2:55 PM,32.0,19.4,60,29.85,10.0,West,23.0,34.5,N/A,,Scattered Clouds,270,2012-01-28 19:55:00
3:14 PM,31.8,19.9,62,29.86,10.0,West,26.5,34.5,N/A,,Mostly Cloudy,270,2012-01-28 20:14:00
3:35 PM,31.3,20.1,63,29.88,7.0,West,21.9,31.1,N/A,Snow,Light Snow,270,2012-01-28 20:35:00
3:55 PM,30.2,22.3,72,29.90,3.0,West,19.6,32.2,N/A,Snow,Light Snow,260,2012-01-28 20:55:00
4:14 PM,27.5,24.6,89,29.91,0.2,West,29.9,40.3,N/A,Snow,Heavy Snow,260,2012-01-28 21:14:00
4:35 PM,28.0,23.5,83,29.92,5.0,West,20.7,29.9,N/A,Snow,Light Snow,270,2012-01-28 21:35:00
4:54 PM,28.6,23.9,83,29.93,4.0,West,13.8,18.4,N/A,Snow,Light Snow,260,2012-01-28 21:54:00
5:15 PM,28.4,22.1,77,29.95,10.0,West,15.0,27.6,N/A,,Scattered Clouds,260,2012-01-28 22:15:00
5:35 PM,28.6,21.9,76,29.95,10.0,WSW,11.5,-,N/A,,Mostly Cloudy,250,2012-01-28 22:35:00
5:54 PM,29.1,18.5,65,29.96,10.0,WSW,20.7,31.1,N/A,,Scattered Clouds,250,2012-01-28 22:54:00
6:15 PM,28.8,18.0,64,29.97,10.0,WSW,13.8,21.9,N/A,,Clear,250,2012-01-28 23:15:00
6:35 PM,29.1,18.7,65,29.98,10.0,WSW,13.8,21.9,N/A,,Mostly Cloudy,250,2012-01-28 23:35:00
6:54 PM,29.3,19.0,66,29.98,10.0,WSW,15.0,19.6,N/A,,Overcast,240,2012-01-28 23:54:00
7:15 PM,29.8,18.7,63,29.99,10.0,WSW,17.3,23.0,N/A,,Mostly Cloudy,250,2012-01-29 00:15:00
7:34 PM,29.3,18.3,64,30.00,10.0,WSW,15.0,19.6,N/A,,Mostly Cloudy,240,2012-01-29 00:34:00
7:54 PM,29.3,18.5,64,30.00,10.0,SW,15.0,18.4,N/A,,Mostly Cloudy,230,2012-01-29 00:54:00
8:15 PM,29.3,18.3,64,30.00,10.0,SW,13.8,23.0,N/A,,Mostly Cloudy,230,2012-01-29 01:15:00
8:34 PM,28.8,18.3,65,30.00,10.0,WSW,17.3,24.2,N/A,,Scattered Clouds,240,2012-01-29 01:34:00
8:55 PM,28.4,18.1,65,30.00,10.0,WSW,13.8,21.9,N/A,,Scattered Clouds,240,2012-01-29 01:55:00
9:14 PM,28.4,17.8,64,30.00,10.0,WSW,15.0,23.0,N/A,,Clear,240,2012-01-29 02:14:00
9:35 PM,28.2,18.0,65,30.00,10.0,WSW,12.7,-,N/A,,Clear,240,2012-01-29 02:35:00
9:55 PM,27.9,17.6,65,29.99,10.0,SW,12.7,23.0,N/A,,Clear,230,2012-01-29 02:55:00
10:14 PM,27.3,17.6,67,29.99,10.0,SW,9.2,19.6,N/A,,Clear,230,2012-01-29 03:14:00
10:35 PM,27.1,18.0,68,29.99,10.0,SW,12.7,18.4,N/A,,Scattered Clouds,230,2012-01-29 03:35:00
10:54 PM,27.1,18.0,68,29.99,10.0,SW,12.7,18.4,N/A,,Scattered Clouds,230,2012-01-29 03:54:00
11:15 PM,26.6,17.6,69,29.99,10.0,WSW,11.5,17.3,N/A,,Scattered Clouds,240,2012-01-29 04:15:00
11:34 PM,26.6,17.8,69,29.99,10.0,SW,10.4,17.3,N/A,,Clear,230,2012-01-29 04:34:00
11:54 PM,26.4,17.6,69,29.99,10.0,SW,11.5,19.6,N/A,,Clear,230,2012-01-29 04:54:00